Regional Weather Roundup
Issued by NWS Albany, NY

Home | Current Version | Previous Version | Text Only | Print | Product List | Glossary On
Versions: 1 2 3 4 5 6 7 8 9 10 11 12 13 14 15 16 17 18 19 20 21 22 23 24 25 26 27 28 29 30 31 32 33 34 35 36 37 38 39 40 41 42 43 44 45 46 47 48 49 50
000
ASUS41 KALY 290410
RWRALY

NEW YORK STATE HOURLY WEATHER ROUNDUP
NATIONAL WEATHER SERVICE ALBANY NY
1200 AM EDT MON MAY 29 2017

NOTE: "FAIR" INDICATES FEW OR NO CLOUDS BELOW 12,000 FEET WITH NO
SIGNIFICANT WEATHER AND/OR NO OBSTRUCTIONS TO VISIBILITY.

NYZ032-033-038>043-046>054-057>066-NYZ062>081-082-084-290500-
EAST


CITY           SKY/WX    TMP DP  RH WIND       PRES   REMARKS
ALBANY         MOCLDY    62  48  60 SE12      29.90F
GLENS FALLS    NOT AVBL
POUGHKEEPSIE   CLOUDY    59  48  67 VRB3      29.92F
NEWBURGH       MOCLDY    59  52  77 E7        29.94F
MONTGOMERY     CLOUDY    57  51  80 NE3       29.91F
WHITE PLAINS   CLOUDY    57  50  77 E7        29.92F
ISLIP          CLOUDY    58  53  84 SE12      29.93F
NEW YORK CITY  CLOUDY    62  51  67 E12       29.91F
CENTRAL PARK   CLOUDY    61  51  70 VRB6      29.94F
$$

NYZ005>009-017-018-044>046-055-056-290500-
CENTRAL


CITY           SKY/WX    TMP DP  RH WIND       PRES   REMARKS
FULTON         CLOUDY    68  56  65 SE6       29.77F
SYRACUSE       CLOUDY    66  56  70 E7        29.77F
ROME           CLOUDY    66  55  67 E9        29.83F
ELMIRA         CLOUDY    66  59  78 SE13      29.79F
BINGHAMTON     CLOUDY    62  55  77 S9        29.85F
MONTICELLO     MOCLDY    55  48  76 SE6       29.93F
$$

NYZ026>034-041>043-087-290500-
NORTH


CITY           SKY/WX    TMP DP  RH WIND       PRES   REMARKS
WATERTOWN      CLOUDY    69  57  65 S6        29.77F
FORT DRUM      NOT AVBL
OGDENSBURG     FAIR      67  55  64 S5        29.79S
MASSENA        CLOUDY    66  55  67 E3        29.81S
SARANAC LAKE   PTCLDY    50  50 100 CALM      29.86S
PLATTSBURGH    CLOUDY    60  54  80 CALM      29.85F
$$

NYZ001>004-010>016-019>021-085-290500-
WEST


CITY           SKY/WX    TMP DP  RH WIND       PRES   REMARKS
NIAGARA FALLS  CLOUDY    68  58  70 SW14      29.69F
BUFFALO        CLOUDY    66  58  75 S9        29.71F
DUNKIRK        CLOUDY    64  60  87 SW8       29.71F
JAMESTOWN      CLOUDY    61  57  88 S9        29.75S
WELLSVILLE     CLOUDY    62  57  83 S8        29.82S
ROCHESTER      MOCLDY    68  59  73 S7        29.72F
PENN YAN       CLOUDY    66  58  75 S9        29.77F
$$

             KEY
       WCI = WIND CHILL INDEX
       VSB = VISIBILITY
       HX  = HEAT INDEX
$$



USA.gov is the U.S. government's official web portal to all federal, state and local government web resources and services.